Regional Weather Roundup
Issued by NWS

Home | Current Version | Previous Version | Text Only | Print | Product List | Glossary Off
Versions: 1 2 3 4 5 6 7 8 9 10 11 12 13 14 15 16 17 18 19 20 21 22 23 24 25 26 27 28 29 30 31 32 33 34 35 36 37 38 39 40 41 42 43 44 45 46 47 48 49 50

000
ASUS43 KMPX 190210
RWRMN
WEATHER ROUNDUP FOR MINNESOTA
NATIONAL WEATHER SERVICE TWIN CITIES/CHANHASSEN MN
800 PM CST THU DEC 18 2014


NOTE: "FAIR" INDICATES FEW OR NO CLOUDS BELOW 12,000 FEET WITH NO
SIGNIFICANT WEATHER AND/OR OBSTRUCTIONS TO VISIBILITY. N/A MEANS
CURRENT SKY AND/OR WEATHER CONDITIONS ARE NOT AVAILABLE.

MNZ060>063-068>070-190300-
   Twin Cities Metro

CITY           SKY/WX    TMP DP  RH WIND       PRES   REMARKS
TWIN CITIES    CLOUDY    20  14  77 VRB3      30.28R
ST PAUL        CLOUDY    21  16  81 S5        30.29S WCI  15
CRYSTAL        CLOUDY    22  15  75 SE5       30.26R WCI  16
BLAINE           N/A     23  18  80 CALM      30.26S
LAKEVILLE      CLOUDY    19  16  86 SE5       30.26R WCI  13
EDEN PRAIRIE   CLOUDY    21  15  78 SE5       30.26R WCI  15
SOUTH ST PAUL  CLOUDY    22  16  78 CALM      30.27S
LAKE ELMO      CLOUDY    23  19  86 CALM      30.27S
$$
MNZ001>005-007-008-013>017-022>024-027-028-190300-
   Northwest Minnesota

CITY           SKY/WX    TMP DP  RH WIND       PRES   REMARKS
BEMIDJI        CLOUDY    17  14  86 S7        30.18R WCI   8
HALLOCK        PTCLDY    19  16  86 S12       30.15S WCI   7
ROSEAU         PTCLDY    18  12  79 SE9       30.17F WCI   6
WARROAD        PTCLDY    12   9  85 SE6       30.18F WCI   3
THIEF RVR FALL CLOUDY    19  16  86 S8        30.16F WCI   9
CROOKSTON      CLOUDY    19  16  86 S9        30.18S WCI   9
FOSSTON        CLOUDY    18  16  93 SE9       30.16S WCI   6
DETROIT LAKES  CLOUDY    21  18  86 SE10      30.16F WCI  10
MOORHEAD       CLOUDY    21  19  93 S12       30.18S WCI   9
PARK RAPIDS    CLOUDY    18  14  84 SE9       30.17F WCI   7
MAHNOMEN       CLOUDY    19  15  82 S7        30.15F WCI  10
$$
MNZ006-009>011-018-025>026-190300-
   North Central Minnesota

CITY           SKY/WX    TMP DP  RH WIND       PRES   REMARKS
BAUDETTE       CLOUDY    19  13  77 S10       30.18F WCI   7
FLAG ISLAND    MOCLDY    16  12  86 S10       30.18S WCI   3
INTL FALLS     CLOUDY    20  16  84 SE3       30.21F
WASKISH        CLOUDY    18  16  93 CALM      30.20S
BIG FORK       CLOUDY    21  18  86 S6        30.20S WCI  14
LONGVILLE      CLOUDY    19  18  93 SE7       30.20S WCI  10
GRAND RAPIDS   CLOUDY    19  18  93 SE7       30.19S WCI  10
CRANE LAKE     CLOUDY    19  18  93 CALM      30.24F
ORR            CLOUDY    19  16  86 CALM      30.18F
COOK           CLOUDY    19  18  93 CALM      30.21S
WALKER         CLOUDY    17  14  87 S8        30.19S WCI   7
$$
MNZ012-019>021-037-190300-
   Northeast Minnesota

CITY           SKY/WX    TMP DP  RH WIND       PRES   REMARKS
DULUTH         CLOUDY    24  17  74 SE8       30.20F WCI  15
ELY            CLOUDY    23  19  86 CALM      30.22S
HIBBING        CLOUDY    23  17  78 SE3       30.20F
EVELETH        CLOUDY    23  21  93 S3        30.22S
DULUTH HARBOR  CLOUDY    27  21  80 CALM      30.27S
TWO HARBORS    CLOUDY    28  21  74 SE3       30.22S
SILVER BAY     CLOUDY    27  21  80 E3        30.22S
GRAND MARAIS     N/A     18  12  77 NW7       30.30S WCI   9
G MARAIS ARPRT PTCLDY     3   0  85 N3        30.22S
$$
MNZ029>031-032-039>041-046>048-054>057-064-190300-
   West Central Minnesota

CITY           SKY/WX    TMP DP  RH WIND       PRES   REMARKS
FERGUS FALLS   CLOUDY    19  14  79 SE10      30.21F WCI   8
WHEATON        CLOUDY    18  16  93 SE14      30.20S WCI   4
MORRIS         CLOUDY    19  18  93 SE12      30.19S WCI   7
ALEXANDRIA     CLOUDY    19  13  77 SE9       30.19F WCI   8
ELBOW LAKE     CLOUDY    19  15  84 SE10      30.19S WCI   7
WADENA         CLOUDY    18  14  86 NW8       30.18F WCI   7
GLENWOOD       CLOUDY    18  16  93 SE9       30.20S WCI   6
APPLETON       CLOUDY    21  18  86 SE5       30.21S WCI  15
BENSON         CLOUDY    19  16  86 S9        30.21S WCI   9
ORTONVILLE     CLOUDY    19  18  93 SE10      30.18F WCI   8
MADISON        CLEAR     25  23  93 SE6       30.21S WCI  18
WILLMAR        CLOUDY    21  16  79 SE9       30.23F WCI  11
$$
MNZ033>034-036-042>043-049>051-058-059-190300-
   Central Minnesota

CITY           SKY/WX    TMP DP  RH WIND       PRES   REMARKS
ST CLOUD       CLOUDY    21  14  74 SE5       30.24S WCI  15
SAUK CENTRE    CLOUDY    19  14  82 SE9       30.21S WCI   7
PAYNESVILLE    CLOUDY    17  14  89 E8        30.23S WCI   6
AITKIN         CLOUDY    21  18  86 SE5       30.20F WCI  15
PINE RIVER     CLOUDY    18  16  93 S7        30.23S WCI   8
BRAINERD       CLOUDY    19  15  84 S6        30.22S WCI  11
STAPLES        CLOUDY    18  12  79 SE5       30.20F WCI  11
LONG PRAIRIE   CLOUDY    19  14  79 SE9       30.21S WCI   9
LITTLE FALLS   CLOUDY    19  14  79 SE5       30.23S WCI  13
LITCHFIELD     CLOUDY    19  18  93 SE6       30.24S WCI  11
BUFFALO        CLOUDY    20  15  79 E3        30.27S
MAPLE LAKE     CLOUDY    19  17  89 CALM      30.26R
$$
MNZ037-044-045-052-053-190300-
   East Central Minnesota

CITY           SKY/WX    TMP DP  RH WIND       PRES   REMARKS
PRINCETON      CLOUDY    21  18  86 CALM      30.25S
MORA           CLOUDY    19  16  86 S3        30.27R
CAMBRIDGE      CLOUDY    23  16  74 S3        30.25R
RUSH CITY      CLOUDY    22  19  87 CALM      30.26S
MOOSE LAKE     CLOUDY    21  19  93 S5        30.22S WCI  15
HINCKLEY       CLOUDY    23  19  86 CALM      30.25S
CLOQUET        CLOUDY    21  18  86 SW3       30.21S
MCGREGOR       CLOUDY    21  19  93 SE6       30.22S WCI  14
$$
MNZ071>073-080-081-089-090-097-098-190300-
   Southwest Minnesota

CITY           SKY/WX    TMP DP  RH WIND       PRES   REMARKS
MONTEVIDEO     CLOUDY    21  19  93 S7        30.22S WCI  13
GRANITE FALLS  CLOUDY    21  18  88 E7        30.23S WCI  13
CANBY          CLOUDY    23  22  95 SE7       30.20S WCI  15
MARSHALL       CLOUDY    23  19  86 SE5       30.19F WCI  17
REDWOOD FALLS  CLOUDY    22  17  81 SE9       30.23S WCI  12
OLIVIA         CLOUDY    23  19  86 SE7       30.22F WCI  15
PIPESTONE      CLOUDY    25  23  93 CALM      30.16S FOG
WINDOM         CLOUDY    23  19  86 SE3       30.20F
WORTHINGTON    CLOUDY    25  21  86 S6        30.19S WCI  18
JACKSON        CLOUDY    27  21  80 SE6       30.21S WCI  20
TRACY          CLOUDY    25  23  89 SE3       30.20S
SLAYTON        CLOUDY    25  24  96 CALM      30.18S
$$
MNZ065>067-074>077-082>085-091>093-190300-
   South Central Minnesota

CITY           SKY/WX    TMP DP  RH WIND       PRES   REMARKS
MANKATO        CLOUDY    21  14  73 SE6       30.25S WCI  14
NEW ULM        CLOUDY    21  18  86 SE3       30.24S
ST JAMES       CLOUDY    25  21  86 SE6       30.24F WCI  18
FAIRMONT       CLOUDY    23  18  80 SE5       30.23S WCI  17
GLENCOE        MOCLDY    19  17  89 SE3       30.25S
FARIBAULT      PTCLDY    18  14  86 CALM      30.26S
OWATONNA       CLOUDY    19  16  86 SE5       30.24S WCI  13
WASECA         CLOUDY    23  18  80 SE6       30.26S WCI  16
ALBERT LEA     CLOUDY    21  19  93 E3        30.24S
$$
MNZ078>079-086>088-094>096-190300-
   Southeast Minnesota

CITY           SKY/WX    TMP DP  RH WIND       PRES   REMARKS
ROCHESTER      CLOUDY    21  15  78 CALM      30.24S
RED WING       CLOUDY    23  18  80 CALM      30.27S
STANTON        CLOUDY    22  16  76 SE3       30.26R
DODGE CENTER   CLOUDY    19  18  93 CALM      30.24S
WINONA         CLOUDY    27  21  80 CALM      30.29S
AUSTIN         CLOUDY    19  18  93 E3        30.24F
PRESTON        CLOUDY    21  16  81 CALM      30.25S
$$
ABBREVIATIONS USED IN REMARKS
   TC - TEMPERATURES IN CELSIUS
  WCI - WIND CHILL INDEX
   HX - HEAT INDEX
  VSB - VISIBILITY
$$



USA.gov is the U.S. government's official web portal to all federal, state and local government web resources and services.